COSMOS 2501 (702K)

Last updated on Thu Oct 30 2025 00:03:21 GMT+0000 (Coordinated Universal Time)

1 40315U 14075A 25301.95588178 .00000016 00000+0 00000+0 0 9997 2 40315 63.6135 198.3759 0020542 206.9537 153.0068 2.13101348 84925
UTC large
Height (km)
Speed (km/s)
/
Latitude / Longitude
Inclination (degrees)
Orbital Period (minutes)
Azimuth
Elevation
Range (km)
Doppler Factor

Next 0 passes for location: London (51.5072 / 0.1276)

Sorry there are no passes over London.